CW7769 Weather Reports


time (UTC)temp
C
wind
direction
speed
KPH
gust
KPH
rain 1hr
cm
rain 24hr
cm
rain mn
cm
humidity
%
barometer
mb
20200227104455 5 168 6.4 17.7 0.00 0.08 0.00 75 1002.9
20200227103955 5 180 6.4 14.5 0.00 0.08 0.00 74 1003.1
20200227103456 5 175 6.4 14.5 0.00 0.08 0.00 75 1003.3
20200227102954 5 168 4.8 14.5 0.00 0.08 0.00 75 1003.4
20200227102454 5 157 6.4 17.7 0.00 0.08 0.00 75 1003.6
20200227101954 5 157 6.4 17.7 0.00 0.13 0.00 75 1003.9
20200227101454 -17 188 8.0 14.5 0.00 0.15 0.00 1004.0
20200227100954 5 186 9.7 11.3 0.00 0.15 0.00 76 1004.3
20200227100454 5 133 4.8 11.3 0.00 0.15 0.00 76 1004.5
20200227095953 5 227 8.0 14.5 0.00 0.15 0.00 76 1004.6
20200227095453 5 151 6.4 16.1 0.00 0.15 0.00 77 1004.7
20200227094957 5 176 3.2 17.7 0.00 0.15 0.00 77 1004.9
20200227094453 5 183 9.7 19.3 0.00 0.15 0.00 77 1005.0
20200227093953 5 169 8.0 19.3 0.00 0.15 0.00 77 1005.1
20200227093454 5 175 6.4 16.1 0.00 0.15 0.00 77 1005.3
20200227092952 5 168 9.7 19.3 0.00 0.15 0.00 79 1005.3
20200227092453 4 210 9.7 19.3 0.00 0.15 0.00 79 1005.4
20200227091954 4 179 6.4 17.7 0.00 0.15 0.00 79 1005.6
20200227091453 4 135 3.2 9.7 0.00 0.15 0.00 79 1005.8
20200227090951 4 180 6.4 9.7 0.00 0.15 0.00 79 1006.0
20200227090453 4 193 3.2 9.7 0.00 0.15 0.00 79 1006.2
20200227085952 4 169 3.2 9.7 0.00 0.15 0.00 80 1006.3
20200227085452 4 159 3.2 9.7 0.00 0.15 0.00 80 1006.3
20200227084953 4 157 4.8 9.7 0.00 0.15 0.00 81 1006.4
20200227084451 4 192 8.0 9.7 0.00 0.15 0.00 81 1006.6
20200227083952 3 164 4.8 17.7 0.00 0.15 0.00 81 1006.8
20200227083453 3 190 3.2 17.7 0.00 0.15 0.00 81 1006.9
20200227082952 3 199 6.4 14.5 0.00 0.15 0.00 81 1006.9
20200227082451 3 179 3.2 16.1 0.00 0.15 0.00 81 1007.0
20200227081952 3 237 6.4 16.1 0.00 0.15 0.00 82 1007.2
20200227081451 3 240 4.8 16.1 0.00 0.15 0.00 82 1007.3
20200227080951 3 179 8.0 16.1 0.00 0.15 0.00 82 1007.5
20200227080452 3 202 4.8 24.1 0.00 0.15 0.00 82 1007.6
20200227075951 3 193 3.2 24.1 0.00 0.15 0.00 82 1007.8
20200227075450 3 202 8.0 14.5 0.00 0.15 0.00 82 1007.8
20200227074951 -17 197 8.0 11.3 0.00 0.15 0.00 1007.9
20200227074450 3 213 6.4 11.3 0.00 0.15 0.00 82 1008.0
20200227073950 3 176 4.8 20.9 0.00 0.15 0.00 83 1008.1
20200227073451 3 183 4.8 20.9 0.00 0.15 0.00 82 1008.1
20200227072950 3 202 3.2 8.0 0.00 0.15 0.00 83 1008.3
20200227072450 3 272 6.4 8.0 0.00 0.15 0.00 82 1008.3
20200227071951 3 200 1.6 11.3 0.00 0.15 0.00 82 1008.3
20200227071450 3 202 6.4 22.5 0.00 0.15 0.00 82 1008.4
20200227070950 3 204 11.3 22.5 0.00 0.15 0.00 83 1008.4
20200227070450 3 183 4.8 14.5 0.00 0.15 0.00 83 1008.6
20200227065950 3 185 4.8 9.7 0.00 0.15 0.00 83 1008.7
20200227065450 3 204 3.2 9.7 0.00 0.15 0.00 82 1008.7
20200227064950 2 182 1.6 14.5 0.00 0.15 0.00 83 1008.7
20200227064449 2 214 8.0 17.7 0.00 0.15 0.00 83 1008.7
20200227063949 2 207 6.4 17.7 0.00 0.15 0.00 83 1008.7
20200227063450 2 169 6.4 16.1 0.00 0.15 0.00 83 1008.7
20200227062949 2 217 8.0 16.1 0.00 0.15 0.00 84 1008.7
20200227062449 2 190 6.4 16.1 0.00 0.15 0.00 84 1008.7
20200227061949 2 234 9.7 14.5 0.00 0.15 0.00 84 1008.7
20200227061448 2 217 3.2 11.3 0.00 0.15 0.00 84 1008.8
20200227060949 2 179 1.6 14.5 0.00 0.15 0.00 84 1008.8
20200227060454 2 188 4.8 14.5 0.00 0.15 0.00 84 1008.9
20200227055948 2 196 6.4 14.5 0.00 0.15 0.00 85 1009.0
20200227055451 2 189 8.0 14.5 0.00 0.15 0.00 85 1009.1
20200227054949 2 173 4.8 17.7 0.00 0.15 0.00 85 1009.2
20200227054448 2 207 8.0 17.7 0.00 0.15 0.00 85 1009.2
20200227053947 2 238 4.8 8.0 0.00 0.15 0.00 85 1009.3
20200227053452 2 217 4.8 14.5 0.00 0.15 0.00 85 1009.3
20200227052948 2 250 6.4 14.5 0.00 0.15 0.00 85 1009.4
20200227052447 2 199 3.2 8.0 0.00 0.15 0.00 84 1009.4
20200227051948 3 200 3.2 17.7 0.00 0.15 0.00 84 1009.4
20200227051447 3 169 11.3 17.7 0.00 0.15 0.00 83 1009.6
20200227050947 3 203 4.8 19.3 0.00 0.15 0.00 83 1009.6
20200227050448 3 235 6.4 19.3 0.00 0.15 0.00 83 1009.6
20200227045946 3 175 6.4 17.7 0.00 0.15 0.00 83 1009.8
20200227045447 3 238 8.0 16.1 0.00 0.15 0.00 83 1009.9
20200227044947 3 200 6.4 11.3 0.00 0.15 0.00 82 1009.8
20200227044446 3 204 4.8 11.3 0.00 0.15 0.00 82 1009.8
20200227043946 3 213 6.4 20.9 0.00 0.15 0.00 82 1009.8
20200227043448 3 165 8.0 20.9 0.00 0.15 0.00 82 1009.8
20200227042946 3 224 9.7 14.5 0.00 0.15 0.00 82 1009.9
20200227042446 3 195 9.7 16.1 0.00 0.15 0.00 82 1010.0
20200227041947 3 141 8.0 16.1 0.00 0.15 0.00 82 1010.1
20200227041446 3 192 9.7 14.5 0.00 0.15 0.00 82 1010.1
20200227040946 3 259 6.4 19.3 0.00 0.15 0.00 82 1010.1
20200227040448 3 221 8.0 19.3 0.00 0.15 0.00 82 1010.3
20200227035945 3 196 9.7 24.1 0.00 0.15 0.00 82 1010.2
20200227035445 3 272 9.7 24.1 0.00 0.15 0.00 82 1010.1
20200227034946 3 206 6.4 22.5 0.00 0.15 0.00 81 1010.2
20200227034444 3 204 9.7 24.1 0.00 0.15 0.00 81 1010.2
20200227033945 3 210 6.4 24.1 0.00 0.15 0.00 81 1010.2
20200227033446 3 214 9.7 19.3 0.00 0.15 0.00 82 1010.3
20200227032945 -17 234 9.7 17.7 0.00 0.15 0.00 1010.3
20200227032445 -17 259 6.4 17.7 0.00 0.15 0.00 1010.4
20200227031944 -17 188 6.4 14.5 0.00 0.15 0.00 1010.3
20200227031445 -17 195 8.0 14.5 0.00 0.15 0.00 1010.4
20200227030944 3 199 4.8 14.5 0.00 0.15 0.00 83 1010.4
20200227030444 -17 251 9.7 16.1 0.00 0.15 0.00 1010.4
20200227025944 3 262 8.0 16.1 0.00 0.15 0.00 83 1010.4
20200227025443 -17 241 11.3 14.5 0.00 0.15 0.00 1010.4
20200227024945 3 235 4.8 17.7 0.00 0.15 0.00 83 1010.5
20200227024443 3 185 9.7 17.7 0.00 0.15 0.00 83 1010.6
20200227023944 3 173 3.2 14.5 0.00 0.15 0.00 83 1010.6
20200227023444 3 182 4.8 17.7 0.00 0.15 0.00 83 1010.6
20200227022944 -17 168 8.0 17.7 0.00 0.15 0.00 1010.7
20200227022443 3 165 9.7 16.1 0.00 0.15 0.00 83 1010.6
20200227021944 3 183 8.0 16.1 0.00 0.15 0.00 83 1010.7
20200227021443 -17 178 6.4 11.3 0.00 0.15 0.00 1010.8
20200227020943 -17 189 4.8 14.5 0.00 0.15 0.00 1010.8
20200227020444 3 217 9.7 16.1 0.00 0.15 0.00 83 1010.8
20200227015943 3 179 11.3 16.1 0.00 0.15 0.00 83 1010.8
20200227015442 3 217 6.4 11.3 0.00 0.15 0.00 83 1010.9
20200227014944 -17 172 4.8 11.3 0.00 0.15 0.00 1010.8
20200227014442 3 195 4.8 16.1 0.00 0.15 0.00 83 1010.9
20200227013942 3 189 8.0 16.1 0.00 0.15 0.00 83 1010.8
20200227013442 -17 180 6.4 14.5 0.00 0.15 0.00 1010.9
20200227012942 -17 182 4.8 14.5 0.00 0.15 0.00 1010.9
20200227012442 3 188 4.8 14.5 0.00 0.15 0.00 82 1011.1
20200227011943 3 173 6.4 14.5 0.00 0.15 0.00 82 1011.2
20200227011442 -17 178 8.0 14.5 0.00 0.15 0.00 1011.1
20200227010942 -17 190 6.4 14.5 0.00 0.15 0.00 1011.1
20200227010442 3 182 6.4 14.5 0.00 0.15 0.00 83 1011.2
20200227005942 3 169 8.0 14.5 0.00 0.15 0.00 83 1011.1
20200227005441 3 178 6.4 19.3 0.00 0.15 0.00 83 1011.1
20200227004941 -17 197 8.0 19.3 0.00 0.15 0.00 1011.0
20200227004441 -17 195 4.8 11.3 0.00 0.15 0.00 1010.9
20200227003941 3 168 6.4 11.3 0.00 0.15 0.00 83 1011.0
20200227003441 -17 164 6.4 11.3 0.00 0.18 0.00 1011.1
20200227002941 -17 195 6.4 11.3 0.00 0.18 0.00 1011.0
20200227002440 -17 161 3.2 11.3 0.00 0.18 0.00 1011.1
20200227001942 3 189 8.0 14.5 0.00 0.20 0.00 83 1011.0
20200227001440 3 180 6.4 14.5 0.00 0.20 0.00 83 1011.0
20200227000941 3 178 3.2 11.3 0.00 0.20 0.00 83 1011.0
20200227000440 -17 202 3.2 11.3 0.00 0.20 0.00 1011.0
20200226235940 3 196 3.2 14.5 0.00 0.20 0.00 83 1011.0
20200226235440 3 186 4.8 14.5 0.00 0.20 0.00 83 1010.9
20200226234941 2 179 3.2 9.7 0.00 0.20 0.00 83 1010.9
20200226234439 2 165 4.8 9.7 0.00 0.20 0.00 84 1010.9
20200226233939 -17 179 3.2 8.0 0.00 0.20 0.00 1010.9
20200226233439 -17 154 1.6 8.0 0.00 0.20 0.00 1010.9
20200226232939 2 192 1.6 11.3 0.00 0.20 0.00 84 1010.9
20200226232440 2 212 1.6 11.3 0.00 0.20 0.00 84 1011.0
20200226231940 2 186 4.8 11.3 0.00 0.20 0.00 84 1011.0
20200226231439 2 196 4.8 9.7 0.00 0.20 0.00 84 1011.0
20200226230939 2 176 4.8 19.3 0.03 0.20 0.00 84 1011.0
20200226230439 -17 213 8.0 19.3 0.03 0.20 0.00 1010.9
20200226225939 2 188 6.4 16.1 0.03 0.20 0.20 84 1010.9
20200226225439 -17 195 6.4 14.5 0.03 0.20 0.20 1010.8
20200226224938 -17 175 9.7 14.5 0.03 0.20 0.20 1010.8
20200226224438 2 180 4.8 9.7 0.03 0.20 0.20 84 1010.8
20200226223938 -17 189 6.4 9.7 0.03 0.20 0.20 1010.8
20200226223440 2 190 4.8 9.7 0.03 0.20 0.20 84 1010.7
20200226222938 2 164 3.2 6.4 0.03 0.20 0.20 84 1010.7
20200226222438 2 186 3.2 8.0 0.03 0.20 0.20 84 1010.8
20200226221939 2 175 4.8 8.0 0.03 0.20 0.20 84 1010.7
20200226221438 2 180 3.2 8.0 0.03 0.20 0.20 84 1010.7
20200226220938 2 186 1.6 8.0 0.00 0.18 0.18 82 1010.6
20200226220439 2 210 0.0 11.3 0.00 0.18 0.18 82 1010.6
20200226215938 -17 204 3.2 11.3 0.00 0.18 0.18 1010.6
20200226215438 2 182 3.2 14.5 0.00 0.18 0.18 82 1010.5
20200226214939 2 203 3.2 14.5 0.00 0.18 0.18 82 1010.6
20200226214437 -17 172 3.2 14.5 0.00 0.18 0.18 1010.6
20200226213937 2 209 8.0 14.5 0.00 0.18 0.18 82 1010.6
20200226213438 2 203 6.4 14.5 0.00 0.18 0.18 82 1010.6
20200226212937 2 183 3.2 11.3 0.00 0.18 0.18 82 1010.6
20200226212437 2 178 4.8 16.1 0.00 0.20 0.18 82 1010.5
20200226211942 2 268 4.8 16.1 0.00 0.20 0.18 82 1010.4
20200226211436 2 176 3.2 9.7 0.00 0.20 0.18 80 1010.3
20200226210936 2 216 4.8 14.5 0.00 0.20 0.18 80 1010.3
20200226210438 2 255 6.4 16.1 0.00 0.20 0.18 80 1010.3
20200226205936 2 195 6.4 16.1 0.00 0.20 0.18 80 1010.2
20200226205436 2 219 8.0 16.1 0.00 0.20 0.18 80 1010.2
20200226204936 -17 180 3.2 16.1 0.00 0.20 0.18 1010.1
20200226204435 2 216 3.2 11.3 0.00 0.20 0.18 80 1010.0
20200226203935 2 220 6.4 11.3 0.00 0.20 0.18 80 1010.0
20200226203437 2 281 3.2 9.7 0.00 0.20 0.18 80 1009.9
20200226202935 -17 234 4.8 9.7 0.00 0.20 0.18 1009.8
20200226202435 3 220 6.4 9.7 0.00 0.20 0.18 80 1009.6
20200226201937 3 202 3.2 11.3 0.00 0.20 0.18 79 1009.5
20200226201435 3 216 6.4 11.3 0.00 0.20 0.18 79 1009.5
20200226200935 3 214 4.8 11.3 0.00 0.20 0.18 79 1009.5
20200226200441 3 196 6.4 9.7 0.00 0.20 0.18 79 1009.5
20200226195934 3 235 4.8 14.5 0.00 0.20 0.18 79 1009.4
20200226195435 3 214 6.4 14.5 0.00 0.20 0.18 79 1009.3
20200226194936 3 220 8.0 14.5 0.00 0.20 0.18 79 1009.3
20200226194434 -17 241 3.2 14.5 0.00 0.20 0.18 1009.3
20200226193936 3 240 1.6 14.5 0.00 0.20 0.18 79 1009.3
20200226193436 3 227 6.4 17.7 0.00 0.20 0.18 79 1009.3
20200226192934 3 226 4.8 17.7 0.00 0.20 0.18 79 1009.2
20200226192434 3 243 6.4 14.5 0.00 0.20 0.18 81 1009.2
20200226191936 3 258 4.8 14.5 0.00 0.20 0.18 81 1009.0
20200226191434 3 237 4.8 14.5 0.00 0.20 0.18 81 1009.0
20200226190933 3 234 3.2 9.7 0.00 0.20 0.18 81 1008.9
20200226190435 3 237 4.8 9.7 0.00 0.20 0.18 81 1008.8
20200226185934 3 243 1.6 8.0 0.00 0.20 0.18 81 1008.8
20200226185434 3 231 1.6 6.4 0.00 0.20 0.18 81 1008.8
20200226184935 3 245 3.2 9.7 0.00 0.20 0.18 81 1008.7
20200226184433 3 212 4.8 9.7 0.00 0.20 0.18 81 1008.5
20200226183933 3 195 4.8 11.3 0.00 0.20 0.18 81 1008.5
20200226183432 -17 216 4.8 11.3 0.00 0.20 0.18 1008.5
20200226182933 3 250 4.8 16.1 0.00 0.20 0.18 81 1008.4
20200226182433 -17 230 4.8 16.1 0.00 0.20 0.18 1008.3
20200226181934 3 189 3.2 9.7 0.00 0.20 0.18 80 1008.2
20200226181432 3 190 1.6 6.4 0.00 0.20 0.18 79 1008.1
20200226180932 3 175 1.6 6.4 0.00 0.20 0.18 79 1008.1
20200226180434 3 164 1.6 9.7 0.00 0.20 0.18 79 1007.9
20200226175932 3 240 3.2 9.7 0.00 0.20 0.18 79 1007.9
20200226175432 3 240 3.2 9.7 0.00 0.20 0.18 79 1007.7
20200226174936 3 197 1.6 4.8 0.00 0.20 0.18 79 1007.6
20200226174432 3 210 1.6 6.4 0.00 0.20 0.18 79 1007.6
20200226173932 3 182 3.2 6.4 0.00 0.20 0.18 80 1007.5
20200226173433 3 214 0.0 4.8 0.00 0.20 0.18 78 1007.4
20200226172932 -17 213 0.0 1.6 0.00 0.20 0.18 1007.3
20200226172431 3 192 0.0 3.2 0.00 0.20 0.18 78 1007.3
20200226171932 3 221 0.0 3.2 0.00 0.20 0.18 78 1007.2
20200226171431 -17 178 1.6 3.2 0.00 0.20 0.18 1007.1
20200226170931 4 188 0.0 8.0 0.00 0.20 0.18 78 1007.0
20200226170432 4 228 1.6 8.0 0.00 0.20 0.18 78 1007.0
20200226165931 4 213 1.6 3.2 0.00 0.20 0.18 78 1006.8
20200226165431 4 234 0.0 11.3 0.00 0.20 0.18 77 1006.7
20200226164932 4 230 3.2 11.3 0.00 0.20 0.18 77 1006.6
20200226164430 4 261 3.2 8.0 0.00 0.20 0.18 82 1006.5
20200226163930 3 281 1.6 6.4 0.03 0.20 0.18 82 1006.3
20200226163431 3 235 3.2 6.4 0.05 0.20 0.18 82 1006.3
20200226162930 3 281 0.0 6.4 0.05 0.20 0.18 85 1006.3
20200226162430 3 226 3.2 6.4 0.05 0.20 0.18 85 1006.4
20200226161931 2 243 0.0 1.6 0.05 0.20 0.18 85 1006.4
20200226161429 2 220 0.0 1.6 0.05 0.20 0.18 85 1006.5
20200226160930 2 200 0.0 0.0 0.05 0.20 0.18 85 1006.5
20200226160429 2 0.0 0.0 0.05 0.20 0.18 85 1006.4
20200226155930 2 223 0.0 0.0 0.05 0.20 0.18 85 1006.3
20200226155429 2 0.0 8.0 0.05 0.20 0.18 83 1006.2
20200226154935 2 276 6.4 8.0 0.05 0.20 0.18 81 1006.3
20200226154429 3 276 0.0 22.5 0.05 0.20 0.18 81 1006.3
20200226153929 3 274 9.7 22.5 0.05 0.18 0.15 76 1006.1
20200226153431 5 289 3.2 20.9 0.00 0.15 0.13 70 1006.1
20200226152929 5 296 4.8 20.9 0.00 0.15 0.13 70 1005.9
20200226152429 5 279 3.2 8.0 0.00 0.15 0.13 70 1005.7
20200226151929 5 272 0.0 9.7 0.00 0.15 0.13 70 1005.6
20200226151429 5 243 4.8 9.7 0.00 0.15 0.13 70 1005.5
20200226150928 5 288 1.6 8.0 0.00 0.15 0.13 70 1005.3
20200226150430 6 262 3.2 8.0 0.00 0.15 0.13 70 1005.2
20200226145928 6 226 3.2 6.4 0.00 0.15 0.13 69 1005.1
20200226145428 6 283 1.6 14.5 0.00 0.15 0.13 68 1005.1
20200226144929 6 269 3.2 14.5 0.00 0.15 0.13 67 1005.0
20200226144428 5 268 3.2 11.3 0.00 0.15 0.13 70 1004.8
20200226143928 5 293 3.2 19.3 0.00 0.15 0.13 69 1004.9
20200226143429 5 289 3.2 24.1 0.00 0.15 0.13 69 1004.9
20200226142928 5 281 4.8 24.1 0.00 0.15 0.13 69 1004.8
20200226142427 5 293 3.2 8.0 0.00 0.15 0.13 70 1004.8
20200226141931 5 259 1.6 9.7 0.00 0.15 0.13 70 1004.7
20200226141427 5 286 4.8 16.1 0.00 0.15 0.13 70 1004.6
20200226140927 5 313 3.2 22.5 0.00 0.15 0.13 70 1004.5
20200226140428 5 257 6.4 24.1 0.00 0.15 0.13 70 1004.6
20200226135927 5 300 6.4 24.1 0.00 0.15 0.13 70 1004.4
20200226135426 5 268 8.0 30.6 0.00 0.15 0.13 70 1004.3
20200226134928 5 285 8.0 30.6 0.00 0.15 0.13 70 1004.3
20200226134427 5 278 9.7 30.6 0.00 0.15 0.13 70 1004.1
20200226133926 5 275 3.2 20.9 0.00 0.15 0.13 70 1004.0
20200226133427 5 250 1.6 19.3 0.00 0.15 0.13 70 1003.9
20200226132927 5 281 3.2 22.5 0.00 0.15 0.13 70 1003.9
20200226132427 5 331 6.4 33.8 0.00 0.15 0.13 69 1003.7
20200226131927 5 289 12.9 33.8 0.00 0.15 0.13 72 1003.7
20200226131426 5 261 8.0 29.0 0.00 0.15 0.13 72 1003.6
20200226130925 5 281 17.7 27.4 0.00 0.15 0.13 72 1003.8
20200226130427 5 296 9.7 35.4 0.00 0.15 0.13 72 1003.7
20200226125925 5 289 19.3 35.4 0.00 0.15 0.13 72 1003.6
20200226125426 5 292 16.1 29.0 0.00 0.15 0.13 72 1003.5
20200226124927 5 261 8.0 32.2 0.00 0.15 0.13 70 1003.4
20200226124425 5 257 20.9 32.2 0.00 0.15 0.13 69 1003.2
20200226123924 5 231 14.5 30.6 0.00 0.15 0.13 68 1003.2
20200226123426 5 238 11.3 33.8 0.00 0.15 0.13 67 1003.1
20200226122925 6 251 9.7 33.8 0.00 0.18 0.13 67 1003.1
20200226122424 6 275 6.4 25.7 0.00 0.18 0.13 68 1003.0
20200226121927 6 281 8.0 25.7 0.00 0.18 0.13 68 1003.1
20200226121425 -17 269 9.7 27.4 0.00 0.20 0.13 1003.0
20200226120924 6 257 11.3 33.8 0.00 0.20 0.13 66 1003.0
20200226120425 6 245 17.7 33.8 0.00 0.20 0.13 66 1003.0
20200226115924 6 281 12.9 29.0 0.00 0.20 0.13 66 1003.1
20200226115424 6 281 12.9 29.0 0.00 0.20 0.13 66 1003.2
20200226114925 6 247 9.7 24.1 0.00 0.20 0.13 68 1003.0
20200226114430 6 295 17.7 29.0 0.00 0.20 0.13 68 1003.0
20200226113924 6 290 11.3 48.3 0.00 0.20 0.13 68 1003.0
20200226113425 6 238 14.5 48.3 0.00 0.20 0.13 68 1002.9
20200226112924 6 307 12.9 32.2 0.00 0.20 0.13 70 1002.8
20200226112423 6 274 17.7 32.2 0.00 0.20 0.13 72 1002.7
20200226111925 6 250 11.3 27.4 0.05 0.20 0.13 72 1002.6
20200226111423 6 310 19.3 25.7 0.05 0.20 0.13 74 1002.4
20200226110922 6 262 8.0 27.4 0.05 0.20 0.13 74 1002.5
20200226110429 5 278 17.7 27.4 0.05 0.20 0.13 74 1002.5
20200226105923 5 237 8.0 24.1 0.05 0.20 0.13 74 1002.5
20200226105422 5 255 9.7 24.1 0.05 0.20 0.13 74 1002.5
20200226104923 5 255 11.3 24.1 0.05 0.20 0.13 77 1002.3